Tracking 19476 objects as of 17-Jan-2019
HD Live streaming from Space Station
objects crossing your sky now

APRIZESAT 7

Track APRIZESAT 7 now!
10-day predictions
APRIZESAT 7 is classified as:


NORAD ID: 39416
Int'l Code: 2013-066A
Perigee: 594.9 km
Apogee: 653.8 km
Inclination: 97.6 °
Period: 97.0 minutes
Semi major axis: 6995 km
RCS: 14.8953 m2 (large)
Launch date: November 21, 2013
Source: United States (US)
Launch site: Orenburg, Russia (OREN)
aabbcc
Your satellite tracking list
Your tracking list is empty




NASA's NSSDC Master Catalog

Two Line Element Set (TLE):
1 39416U 13066A   19017.04235388  .00000032  00000-0  99149-5 0  9992
2 39416  97.5605  49.2529 0042093 147.0612 213.3239 14.83856059279063
Source of the keplerian elements: AFSPC